(512898) = 2000 WS78 = 2016 WF42

Discovered at Socorro on 2000-11-20 by LINEAR.

Orbit

Orbit type: Main Belt

Note: WebGL enabled browser required.

epoch2024-03-31.0
epoch JD2460400.5
perihelion date2022-06-26.67714
perihelion JD2459757.17715
argument of perihelion (°)172.43522
ascending node (°)267.89027
inclination (°)8.54531
eccentricity0.0732191
perihelion distance (AU)2.8309307
Tisserand w.r.t. Jupiter3.2
ΔV w.r.t. Earth (km/sec)10.8
semimajor axis (AU)3.0545847
mean anomaly (°)118.76946
mean daily motion (°/day)0.18461880
aphelion distance (AU)3.278
period (years)5.34
P-vector [x]0.16659033
P-vector [y]0.89670213
P-vector [z]0.41008895
Q-vector [x]-0.97478108
Q-vector [y]0.21240377
Q-vector [z]-0.06845787
absolute magnitude16.05
phase slope0.15
uncertainty0
referenceE2024-H23
observations used313
oppositions15
arc length (days)10341
first opposition used1995
last opposition used2024
residual rms (arc-secs)0.79
perturbers coarse indicatorM-v
perturbers precise indicator003Ek
first observation date used1995-12-25.0
last observation date used2024-04-17.0
computer nameMPCLINUX
JD of orbit computation2458135.197789
perihelion JD uncertainty (days)2.3971E-04
argument of perihelion uncertainty (°)5.9261E-05
ascending node uncertainty (°)3.4396E-05
inclination uncertainty (°)5.7232E-06
eccentricity uncertainty 5.8019E-08
perihelion distance uncertainty (AU)1.7729E-07
Minimum Orbit Intersection Distances (in AU)
for orbit epoch: 2460400.5, reference: E2024-G02
Mercury2.52371
Venus2.11078
Earth1.84741
Mars1.25196
Jupiter1.9311
Saturn6.20682
Uranus15.4323
Neptune26.931

Observations

309 total observations over interval: 1995 12 25.47995 – 2024 03 17.586847
These data are available for download (format description).

Date (UT) J2000 RA J2000 Dec Magn Location Ref
1995 12 25.47995 06 17 23.84 +22 10 39.6   608 – Haleakala-AMOS MPS 749670
1995 12 25.50736 06 17 22.21 +22 10 35.5   608 – Haleakala-AMOS MPS 749670
2000 11 20.29434 03 54 35.45 +26 37 42.9 19.5   704 – Lincoln Laboratory ETS, New Mexico MPS 22929
2000 11 20.31157 03 54 34.45 +26 37 36.7 19.7   704 – Lincoln Laboratory ETS, New Mexico MPS 22929
2000 11 20.32657 03 54 33.70 +26 37 32.9 19.9   704 – Lincoln Laboratory ETS, New Mexico MPS 22929
2000 11 20.34158 03 54 32.87 +26 37 28.3 19.2   704 – Lincoln Laboratory ETS, New Mexico MPS 22929
2000 11 20.35661 03 54 32.04 +26 37 23.6 19.4   704 – Lincoln Laboratory ETS, New Mexico MPS 22929
2000 11 29.24768 03 46 38.13 +25 48 52.5 19.6   704 – Lincoln Laboratory ETS, New Mexico MPS 22929
2000 11 29.26431 03 46 37.21 +25 48 48.0 19.9   704 – Lincoln Laboratory ETS, New Mexico MPS 22929
2000 11 29.28018 03 46 36.45 +25 48 41.2 19.8   704 – Lincoln Laboratory ETS, New Mexico MPS 22929
2000 11 29.29520 03 46 35.61 +25 48 35.5 19.7   704 – Lincoln Laboratory ETS, New Mexico MPS 22929
2005 10 10.32141 01 41 09.78 +22 44 21.6 21.1 V 703 – Catalina Sky Survey MPS 749670
2005 10 10.32933 01 41 09.34 +22 44 21.0 20.6 V 703 – Catalina Sky Survey MPS 749670
2005 10 10.33722 01 41 08.98 +22 44 18.7 20.5 V 703 – Catalina Sky Survey MPS 749670
2005 10 10.34509 01 41 08.70 +22 44 16.8 20.6 V 703 – Catalina Sky Survey MPS 749670
2006 11 23.46255 08 58 55.02 +12 28 33.4 20.5 V G96 – Mt. Lemmon Survey MPS 749670
2006 11 23.46929 08 58 55.16 +12 28 32.1 20.6 V G96 – Mt. Lemmon Survey MPS 749670
2006 11 23.47594 08 58 55.30 +12 28 30.0 21.0 V G96 – Mt. Lemmon Survey MPS 749670
2006 11 23.48267 08 58 55.45 +12 28 28.2 21.2 V G96 – Mt. Lemmon Survey MPS 749670
2006 11 23.48965 08 58 55.56 +12 28 25.9 21.2 V G96 – Mt. Lemmon Survey MPS 749670
2006 11 23.49702 08 58 55.70 +12 28 23.7 20.9 V G96 – Mt. Lemmon Survey MPS 749670
2006 11 23.50434 08 58 55.84 +12 28 21.5 21.1 V G96 – Mt. Lemmon Survey MPS 749670
2006 11 23.51177 08 58 55.95 +12 28 19.3 21.1 V G96 – Mt. Lemmon Survey MPS 749670
2006 12 27.31916 08 56 34.18 +10 25 05.8 20.0 V G96 – Mt. Lemmon Survey MPS 749670
2006 12 27.32598 08 56 34.00 +10 25 05.3 19.8 V G96 – Mt. Lemmon Survey MPS 749670
2006 12 27.33270 08 56 33.82 +10 25 05.2 19.8 V G96 – Mt. Lemmon Survey MPS 749670
2006 12 27.33949 08 56 33.64 +10 25 04.7 19.8 V G96 – Mt. Lemmon Survey MPS 749670
2007 02 06.29155 08 24 51.63 +10 28 50.7 20.1 R 644 – Palomar Mountain/NEAT MPS 749670
2007 02 06.31187 08 24 50.58 +10 28 52.9 19.6 R 644 – Palomar Mountain/NEAT MPS 749670
2007 02 06.33335 08 24 49.50 +10 28 54.7 19.8 R 644 – Palomar Mountain/NEAT MPS 749670
2010 10 08.15556 23 23 44.39 +09 47 21.5 20.6 V 291 – LPL/Spacewatch II MPS 749670
2010 10 08.15926 23 23 44.26 +09 47 20.0 20.6 V 291 – LPL/Spacewatch II MPS 749670
2010 10 08.16329 23 23 44.11 +09 47 18.8 20.5 V 291 – LPL/Spacewatch II MPS 749670
2010 10 08.192372 23 23 42.92 +09 47 07.5 20.1 V H21 – Astronomical Research Observatory, Westfield MPS 749670
2010 10 08.203212 23 23 42.53 +09 47 03.6 20.0 V H21 – Astronomical Research Observatory, Westfield MPS 749670
2010 10 08.217272 23 23 41.99 +09 46 58.9 20.0 V H21 – Astronomical Research Observatory, Westfield MPS 749670
2013 04 07.34749 11 49 06.812 -12 12 05.65 20.4 w F51 – Pan-STARRS 1, Haleakala MPS 867586
2013 04 07.36202 11 49 06.217 -12 12 00.43 20.4 w F51 – Pan-STARRS 1, Haleakala MPS 867586
2014 08 22.26787 16 41 25.241 -21 59 39.25 21.6 w F51 – Pan-STARRS 1, Haleakala MPS 749670
2014 08 22.27952 16 41 25.515 -21 59 38.80 21.9 w F51 – Pan-STARRS 1, Haleakala MPS 749670
2014 08 22.29119 16 41 25.819 -21 59 38.37 21.8 w F51 – Pan-STARRS 1, Haleakala MPS 749670
2015 07 23.45766 22 16 10.273 -00 03 01.06 20.9 w F51 – Pan-STARRS 1, Haleakala MPS 749670
2015 07 23.46944 22 16 09.908 -00 03 00.50 20.9 w F51 – Pan-STARRS 1, Haleakala MPS 749670
2015 07 23.48121 22 16 09.551 -00 02 59.84 20.8 w F51 – Pan-STARRS 1, Haleakala MPS 749670
2015 07 23.49289 22 16 09.192 -00 02 59.29 21.2 w F51 – Pan-STARRS 1, Haleakala MPS 749670
2015 08 09.42747 22 05 46.385 -00 09 33.50 20.7 w F51 – Pan-STARRS 1, Haleakala MPS 749670
2015 08 09.43953 22 05 45.857 -00 09 34.57 20.5 w F51 – Pan-STARRS 1, Haleakala MPS 749670
2015 08 09.46363 22 05 44.758 -00 09 36.78 20.4 w F51 – Pan-STARRS 1, Haleakala MPS 749670
2015 09 09.57481 21 42 32.40 -01 44 38.2 20.4 R D29 – Purple Mountain Observatory, XuYi Station MPS 749670
2015 09 09.58892 21 42 31.86 -01 44 41.7 20.4 R D29 – Purple Mountain Observatory, XuYi Station MPS 749670
2015 09 09.60303 21 42 31.27 -01 44 44.6 21.0 R D29 – Purple Mountain Observatory, XuYi Station MPS 749670
2015 11 01.24212 21 35 24.552 -04 08 57.14 21.3 w F51 – Pan-STARRS 1, Haleakala MPS 749670
2015 11 01.25421 21 35 24.836 -04 08 57.52 21.4 w F51 – Pan-STARRS 1, Haleakala MPS 749670
2015 11 01.26632 21 35 25.106 -04 08 57.84 21.6 w F51 – Pan-STARRS 1, Haleakala MPS 749670
2015 11 01.27839 21 35 25.409 -04 08 58.18 21.5 w F51 – Pan-STARRS 1, Haleakala MPS 749670
2016 10 31.36623 04 14 53.55 +27 51 56.1 20.3 V G96 – Mt. Lemmon Survey MPS 749670
2016 10 31.37055 04 14 53.37 +27 51 55.1 20.3 V G96 – Mt. Lemmon Survey MPS 749670
2016 10 31.37487 04 14 53.20 +27 51 54.5 20.1 V G96 – Mt. Lemmon Survey MPS 749670
2016 10 31.37920 04 14 53.01 +27 51 53.9 20.4 V G96 – Mt. Lemmon Survey MPS 749670
2016 11 10.26528 04 07 35.96 +27 19 29.1 19.6 V G96 – Mt. Lemmon Survey MPS 749670
2016 11 10.27302 04 07 35.56 +27 19 27.2 19.7 V G96 – Mt. Lemmon Survey MPS 749670
2016 11 10.27776 04 07 35.32 +27 19 26.4 20.0 V G96 – Mt. Lemmon Survey MPS 749670
2016 11 10.28251 04 07 35.09 +27 19 25.2 20.0 V G96 – Mt. Lemmon Survey MPS 749670
2016 11 18.39365 04 00 37.05 +26 44 15.2 19.7 V G96 – Mt. Lemmon Survey MPS 749670
2016 11 18.39797 04 00 36.84 +26 44 14.7 19.6 V G96 – Mt. Lemmon Survey MPS 749670
2016 11 18.40232 04 00 36.55 +26 44 13.2 19.9 V G96 – Mt. Lemmon Survey MPS 749670
2016 11 18.40666 04 00 36.35 +26 44 11.8 19.5 V G96 – Mt. Lemmon Survey MPS 749670
2016 11 25.32919 03 54 24.09 +26 09 03.8 19.4 V G96 – Mt. Lemmon Survey MPS 747797
2016 11 25.33544 03 54 23.79 +26 09 02.3 19.4 V G96 – Mt. Lemmon Survey MPS 747797
2016 11 25.33975 03 54 23.46 +26 09 01.2 19.7 V G96 – Mt. Lemmon Survey MPS 747797
2016 11 25.34536 03 54 23.14 +26 08 59.4 19.8 V G96 – Mt. Lemmon Survey MPS 747797
2016 11 26.28914 03 53 32.67 +26 03 54.0 19.7 V G96 – Mt. Lemmon Survey MPS 749670
2016 11 26.29346 03 53 32.45 +26 03 52.9 19.7 V G96 – Mt. Lemmon Survey MPS 749670
2016 11 26.29930 03 53 32.11 +26 03 51.0 19.7 V G96 – Mt. Lemmon Survey MPS 749670
2016 11 26.30689 03 53 31.67 +26 03 48.4 19.7 V G96 – Mt. Lemmon Survey MPS 749670
2016 11 27.07366 03 52 50.74 +25 59 38.4 19.3 R J04 – ESA Optical Ground Station, Tenerife MPS 747797
2016 11 27.08882 03 52 49.89 +25 59 33.7 19.5 R J04 – ESA Optical Ground Station, Tenerife MPS 747797
2016 11 27.10051 03 52 49.26 +25 59 29.4 19.5 R J04 – ESA Optical Ground Station, Tenerife MPS 747797
2016 11 27.11220 03 52 48.61 +25 59 25.6 19.9 R J04 – ESA Optical Ground Station, Tenerife MPS 747797
2016 12 04.14763 03 46 46.16 +25 19 43.2 20.4 r G45 – Space Surveillance Telescope, Atom Site MPS 749670
2016 12 04.14838 03 46 46.12 +25 19 43.3 20.4 r G45 – Space Surveillance Telescope, Atom Site MPS 749670
2016 12 04.15313 03 46 45.91 +25 19 42.2 20.4 r G45 – Space Surveillance Telescope, Atom Site MPS 749670
2016 12 04.15340 03 46 45.87 +25 19 41.3 20.7 r G45 – Space Surveillance Telescope, Atom Site MPS 749670
2016 12 04.15820 03 46 45.67 +25 19 39.3 20.4 r G45 – Space Surveillance Telescope, Atom Site MPS 749670
2016 12 04.15894 03 46 45.57 +25 19 39.9 20.5 r G45 – Space Surveillance Telescope, Atom Site MPS 749670
2016 12 04.16397 03 46 45.33 +25 19 38.0 20.4 r G45 – Space Surveillance Telescope, Atom Site MPS 749670
2016 12 04.16953 03 46 45.06 +25 19 36.3 20.3 r G45 – Space Surveillance Telescope, Atom Site MPS 749670
2016 12 04.17449 03 46 44.81 +25 19 34.9 20.6 r G45 – Space Surveillance Telescope, Atom Site MPS 749670
2016 12 04.17530 03 46 44.74 +25 19 34.4 20.2 r G45 – Space Surveillance Telescope, Atom Site MPS 749670
